Weather History for Dodge City, KS

Change the Weather History Date:

Tuesday, March 11, 2014

  Actual Average Record
Temperature  
Mean Temperature 48 °F -  
Max Temperature 60 °F 56 °F 89 °F (1989)
Min Temperature 35 °F 32 °F -15 °F (1948)
Degree Days  
Heating Degree Days 17    
Moisture  
Dew Point 27 °F    
Average Humidity 50    
Maximum Humidity 79    
Minimum Humidity 21    
Precipitation  
Precipitation 0.00 in - - ()
Sea Level Pressure  
Sea Level Pressure 29.70 in    
Wind  
Wind Speed 21 mph (NNW)    
Max Wind Speed 44 mph    
Max Gust Speed 56 mph    
Visibility 10 miles    
Events      
Averages and records for this station are not official NWS values.
T = Trace of Precipitation, MM = Missing Value Source: NWS Daily Summary

Daily Weather History Graph

Daily Weather History Graph

Search for Another Location

Airport:

Trip Planner

Search our weather history database for the weather conditions in past years. The results will help you decide how hot, cold, wet, or windy it might be!

Date:

Astronomy

Mar. 11, 2014 Rise Set
Actual Time 7:56 AM CDT 7:43 PM CDT
Civil Twilight 7:30 AM CDT 8:09 PM CDT
Nautical Twilight 7:00 AM CDT 8:39 PM CDT
Astronomical Twilight 6:29 AM CDT 9:10 PM CDT
Moon 3:25 PM CDT (3/11) 4:47 AM CDT (3/11)
Length of Visible Light 12h 38m
Length of Day
11h 46m
Waxing Gibbous, 78% of the Moon is Illuminated
Mar 11
Waxing Gibbous
Mar 16
Full
Mar 23
Last Quarter
Mar 30
New
Apr 7
First Quarter

Hourly Weather History & Observations

Time (CDT) Temp. Windchill Dew Point Humidity Pressure Visibility Wind Dir Wind Speed Gust Speed Precip Events Conditions
12:52 AM 46.9 °F - 19.9 °F 34% 29.57 in 10.0 mi South 11.5 mph - N/A   Clear
1:52 AM 43.0 °F 36.8 °F 21.0 °F 42% 29.54 in 10.0 mi South 11.5 mph - N/A   Clear
2:52 AM 43.0 °F 36.8 °F 21.0 °F 42% 29.51 in 10.0 mi South 11.5 mph - N/A   Clear
3:52 AM 42.1 °F 36.1 °F 21.9 °F 45% 29.47 in 10.0 mi South 10.4 mph - N/A   Clear
4:52 AM 39.9 °F 33.4 °F 21.0 °F 47% 29.44 in 10.0 mi South 10.4 mph - N/A   Clear
5:52 AM 45.0 °F 38.9 °F 17.1 °F 33% 29.40 in 10.0 mi SSW 12.7 mph - N/A   Clear
6:52 AM 43.0 °F 36.0 °F 18.0 °F 37% 29.41 in 10.0 mi SW 13.8 mph - N/A   Clear
7:52 AM 43.0 °F 36.8 °F 16.0 °F 34% 29.42 in 10.0 mi WSW 11.5 mph - N/A   Clear
8:52 AM 48.0 °F - 21.0 °F 34% 29.42 in 10.0 mi NW 24.2 mph - N/A   Clear
9:52 AM 53.1 °F - 26.1 °F 35% 29.44 in 10.0 mi NNW 20.7 mph 32.2 mph N/A   Clear
10:52 AM 59.0 °F - 28.9 °F 32% 29.46 in 10.0 mi North 32.2 mph 44.9 mph N/A   Clear
11:52 AM 55.9 °F - 35.1 °F 45% 29.53 in 10.0 mi NNW 35.7 mph 49.5 mph N/A   Clear
12:52 PM 55.0 °F - 37.0 °F 51% 29.60 in 10.0 mi NNW 35.7 mph 48.3 mph N/A   Clear
1:52 PM 55.0 °F - 34.0 °F 45% 29.65 in 8.0 mi North 34.5 mph 52.9 mph N/A   Scattered Clouds
2:52 PM 48.9 °F - 32.0 °F 52% 29.71 in 9.0 mi North 40.3 mph 55.2 mph N/A   Mostly Cloudy
3:52 PM 45.0 °F 34.3 °F 32.0 °F 60% 29.76 in 9.0 mi North 36.8 mph 56.4 mph N/A   Overcast
4:52 PM 44.1 °F 32.4 °F 30.9 °F 60% 29.82 in 10.0 mi North 41.4 mph 54.1 mph N/A   Overcast
5:52 PM 44.1 °F 32.9 °F 30.9 °F 60% 29.86 in 10.0 mi North 38.0 mph 49.5 mph N/A   Overcast
6:52 PM 41.0 °F 27.9 °F 30.0 °F 65% 29.94 in 10.0 mi North 43.7 mph 55.2 mph N/A   Overcast
7:52 PM 39.0 °F 25.4 °F 30.0 °F 70% 29.99 in 10.0 mi North 41.4 mph 55.2 mph N/A   Overcast
8:29 PM 37.0 °F 23.1 °F 30.0 °F 76% 30.03 in 10.0 mi North 38.0 mph 48.3 mph N/A   Mostly Cloudy
8:52 PM 37.9 °F 24.2 °F 30.0 °F 73% 30.07 in 10.0 mi North 39.1 mph 51.8 mph N/A   Mostly Cloudy
9:40 PM 37.0 °F 23.5 °F 30.9 °F 79% 30.08 in 10.0 mi North 35.7 mph 43.7 mph N/A   Scattered Clouds
9:52 PM 37.0 °F 24.9 °F 30.9 °F 79% 30.11 in 10.0 mi North 27.6 mph 42.6 mph N/A   Partly Cloudy
10:52 PM 36.0 °F 23.0 °F 28.9 °F 76% 30.15 in 10.0 mi North 29.9 mph 36.8 mph N/A   Clear
11:52 PM 35.1 °F 24.5 °F 25.0 °F 67% 30.20 in 10.0 mi North 18.4 mph - N/A   Clear